• în Republica Moldova
  • Lista ţărilor
  • Pe 7 zile
  • Temperatura apei
  • Hartă satelitară
  • Meteo pe hartă
  • Widget-uri
  • user-avatar
    Intrare

    Meteo pe oră la Gjirokaster

    Astăzi, 21 Iulie, Vineri

    Timp Temperatura Precipitaţii Vânt Presiune Umiditate
    00:00 +16°C° 0 mm 1 m/s 652 mmHg 65%
    01:00 +16°C° 0 mm 1 m/s 652 mmHg 65%
    02:00 +16°C° 0 mm 1 m/s 652 mmHg 66%
    03:00 +15°C° 0 mm 1 m/s 652 mmHg 66%
    04:00 +15°C° 0 mm 1 m/s 652 mmHg 67%
    05:00 +18°C° 0 mm 1 m/s 652 mmHg 63%
    06:00 +20°C° 0 mm 1 m/s 653 mmHg 60%
    07:00 +21°C° 0 mm 1 m/s 653 mmHg 56%
    08:00 +23°C° 0 mm 1 m/s 654 mmHg 51%
    09:00 +24°C° 0 mm 1 m/s 654 mmHg 46%
    10:00 +26°C° 0 mm 1 m/s 655 mmHg 41%
    11:00 +26°C° 0 mm 2 m/s 655 mmHg 39%
    12:00 +27°C° 0 mm 2 m/s 655 mmHg 38%
    13:00 +27°C° 0 mm 3 m/s 655 mmHg 37%
    14:00 +27°C° 0 mm 3 m/s 655 mmHg 39%
    15:00 +27°C° 0 mm 3 m/s 654 mmHg 40%
    16:00 +26°C° 0 mm 3 m/s 654 mmHg 42%
    17:00 +25°C° 0 mm 2 m/s 654 mmHg 47%
    18:00 +23°C° 0 mm 2 m/s 653 mmHg 52%
    19:00 +20°C° 0 mm 2 m/s 653 mmHg 58%
    20:00 +20°C° 0 mm 1 m/s 653 mmHg 59%
    21:00 +20°C° 0 mm 1 m/s 653 mmHg 61%
    22:00 +19°C° 0 mm 1 m/s 653 mmHg 63%
    23:00 +19°C° 0 mm 1 m/s 653 mmHg 63%

    Mâine, 22 Iulie, Sâmbătă

    Timp Temperatura Precipitaţii Vânt Presiune Umiditate
    00:00 +18°C° 0 mm 1 m/s 653 mmHg 63%
    01:00 +18°C° 0 mm 1 m/s 653 mmHg 64%
    02:00 +18°C° 0 mm 1 m/s 653 mmHg 64%
    03:00 +18°C° 0 mm 1 m/s 653 mmHg 64%
    04:00 +18°C° 0 mm 1 m/s 653 mmHg 64%
    05:00 +19°C° 0 mm 1 m/s 654 mmHg 60%
    06:00 +19°C° 0 mm 0 m/s 654 mmHg 56%
    07:00 +21°C° 0 mm 0 m/s 655 mmHg 52%
    08:00 +24°C° 0 mm 1 m/s 655 mmHg 47%
    09:00 +26°C° 0 mm 1 m/s 656 mmHg 42%
    10:00 +28°C° 0 mm 2 m/s 656 mmHg 37%
    11:00 +28°C° 0 mm 2 m/s 656 mmHg 35%
    12:00 +29°C° 0 mm 3 m/s 656 mmHg 34%
    13:00 +30°C° 0 mm 3 m/s 656 mmHg 32%
    14:00 +29°C° 0 mm 3 m/s 656 mmHg 34%
    15:00 +29°C° 0 mm 3 m/s 656 mmHg 35%
    16:00 +28°C° 0 mm 3 m/s 655 mmHg 36%
    17:00 +26°C° 0 mm 3 m/s 655 mmHg 41%
    18:00 +24°C° 0 mm 2 m/s 654 mmHg 47%
    19:00 +22°C° 0 mm 1 m/s 654 mmHg 52%
    20:00 +21°C° 0 mm 1 m/s 654 mmHg 52%
    21:00 +20°C° 0 mm 1 m/s 654 mmHg 53%
    22:00 +20°C° 0 mm 1 m/s 654 mmHg 53%
    23:00 +19°C° 0 mm 1 m/s 654 mmHg 52%

    Poimâine, 23 Iulie, Duminică

    Timp Temperatura Precipitaţii Vânt Presiune Umiditate
    00:00 +19°C° 0 mm 1 m/s 654 mmHg 51%
    01:00 +19°C° 0 mm 1 m/s 654 mmHg 49%
    02:00 +19°C° 0 mm 1 m/s 653 mmHg 48%
    03:00 +19°C° 0 mm 1 m/s 653 mmHg 46%
    04:00 +18°C° 0 mm 1 m/s 653 mmHg 45%
    05:00 +20°C° 0 mm 1 m/s 653 mmHg 43%
    06:00 +22°C° 0 mm 1 m/s 654 mmHg 42%
    07:00 +24°C° 0 mm 1 m/s 654 mmHg 40%
    08:00 +26°C° 0 mm 1 m/s 655 mmHg 37%
    09:00 +27°C° 0 mm 2 m/s 655 mmHg 34%
    10:00 +29°C° 0 mm 2 m/s 655 mmHg 32%
    11:00 +29°C° 0 mm 3 m/s 655 mmHg 31%
    12:00 +30°C° 0 mm 3 m/s 655 mmHg 30%
    13:00 +30°C° 0 mm 3 m/s 655 mmHg 30%
    14:00 +30°C° 0 mm 3 m/s 654 mmHg 31%
    15:00 +29°C° 0 mm 3 m/s 654 mmHg 32%
    16:00 +29°C° 0 mm 3 m/s 654 mmHg 33%
    17:00 +27°C° 0 mm 3 m/s 653 mmHg 39%
    18:00 +25°C° 0 mm 3 m/s 653 mmHg 44%
    19:00 +21°C° 0 mm 3 m/s 653 mmHg 49%
    20:00 +20°C° 0 mm 2 m/s 653 mmHg 50%
    21:00 +20°C° 0 mm 2 m/s 652 mmHg 52%
    22:00 +19°C° 0 mm 2 m/s 652 mmHg 53%
    23:00 +18°C° 0 mm 2 m/s 652 mmHg 53%

    24 Iulie, Luni

    Timp Temperatura Precipitaţii Vânt Presiune Umiditate
    00:00 +18°C° 0 mm 2 m/s 652 mmHg 53%
    01:00 +17°C° 0 mm 2 m/s 652 mmHg 53%
    02:00 +17°C° 0 mm 2 m/s 651 mmHg 52%
    03:00 +17°C° 0 mm 2 m/s 651 mmHg 52%
    04:00 +17°C° 0 mm 2 m/s 650 mmHg 51%
    05:00 +18°C° 0 mm 2 m/s 651 mmHg 48%
    06:00 +20°C° 0 mm 2 m/s 651 mmHg 45%
    07:00 +23°C° 0 mm 1 m/s 652 mmHg 42%
    08:00 +25°C° 0 mm 1 m/s 652 mmHg 37%
    09:00 +27°C° 0 mm 2 m/s 653 mmHg 32%
    10:00 +29°C° 0 mm 2 m/s 653 mmHg 27%
    11:00 +29°C° 0 mm 2 m/s 653 mmHg 25%
    12:00 +30°C° 0 mm 3 m/s 652 mmHg 24%
    13:00 +31°C° 0 mm 3 m/s 652 mmHg 22%
    14:00 +30°C° 0 mm 3 m/s 652 mmHg 24%
    15:00 +30°C° 0 mm 2 m/s 652 mmHg 25%
    16:00 +29°C° 0 mm 2 m/s 651 mmHg 27%
    17:00 +27°C° 0 mm 2 m/s 651 mmHg 32%
    18:00 +25°C° 0 mm 2 m/s 650 mmHg 38%
    19:00 +21°C° 0 mm 2 m/s 649 mmHg 43%
    20:00 +21°C° 0 mm 2 m/s 649 mmHg 46%
    21:00 +20°C° 0 mm 2 m/s 649 mmHg 48%
    22:00 +19°C° 0 mm 3 m/s 649 mmHg 50%
    23:00 +18°C° 0 mm 3 m/s 648 mmHg 52%

    25 Iulie, Marţi

    Timp Temperatura Precipitaţii Vânt Presiune Umiditate
    00:00 +18°C° 0 mm 3 m/s 648 mmHg 54%
    01:00 +17°C° 0 mm 3 m/s 648 mmHg 55%
    02:00 +17°C° 0 mm 3 m/s 648 mmHg 56%
    03:00 +16°C° 0 mm 3 m/s 647 mmHg 57%
    04:00 +16°C° 0 mm 2 m/s 647 mmHg 59%
    05:00 +17°C° 0 mm 2 m/s 647 mmHg 57%
    06:00 +19°C° 0 mm 2 m/s 648 mmHg 55%
    07:00 +20°C° 0 mm 2 m/s 648 mmHg 54%
    08:00 +21°C° 0 mm 2 m/s 648 mmHg 50%
    09:00 +24°C° 0 mm 3 m/s 648 mmHg 47%
    10:00 +25°C° 0 mm 3 m/s 649 mmHg 43%
    11:00 +25°C° 0 mm 3 m/s 649 mmHg 41%
    12:00 +26°C° 0 mm 3 m/s 649 mmHg 39%
    13:00 +27°C° 0 mm 3 m/s 649 mmHg 38%
    14:00 +26°C° 0 mm 3 m/s 649 mmHg 39%
    15:00 +26°C° 0 mm 3 m/s 648 mmHg 40%
    16:00 +25°C° 0 mm 3 m/s 648 mmHg 41%
    17:00 +22°C° 0 mm 3 m/s 648 mmHg 49%
    18:00 +20°C° 0 mm 2 m/s 648 mmHg 56%
    19:00 +18°C° 0 mm 2 m/s 647 mmHg 63%
    20:00 +18°C° 0 mm 1 m/s 647 mmHg 67%
    21:00 +16°C° 0 mm 1 m/s 647 mmHg 71%
    22:00 +14°C° 0 mm 0 m/s 647 mmHg 75%
    23:00 +15°C° 0 mm 1 m/s 647 mmHg 77%

    26 Iulie, Miercuri

    Timp Temperatura Precipitaţii Vânt Presiune Umiditate
    00:00 +15°C° 0 mm 1 m/s 647 mmHg 78%
    01:00 +14°C° 0 mm 1 m/s 647 mmHg 79%
    02:00 +14°C° 0 mm 1 m/s 647 mmHg 80%
    03:00 +14°C° 0 mm 1 m/s 646 mmHg 80%
    04:00 +13°C° 0 mm 1 m/s 646 mmHg 80%
    05:00 +15°C° 0 mm 1 m/s 647 mmHg 74%
    06:00 +18°C° 0 mm 1 m/s 648 mmHg 67%
    07:00 +19°C° 0 mm 1 m/s 648 mmHg 61%
    08:00 +21°C° 0 mm 1 m/s 649 mmHg 55%
    09:00 +21°C° 0 mm 2 m/s 649 mmHg 50%
    10:00 +24°C° 0 mm 2 m/s 649 mmHg 44%
    11:00 +24°C° 0 mm 2 m/s 649 mmHg 43%
    12:00 +25°C° 0 mm 3 m/s 649 mmHg 41%
    13:00 +25°C° 0 mm 3 m/s 649 mmHg 39%
    14:00 +25°C° 0 mm 3 m/s 649 mmHg 41%
    15:00 +25°C° 0 mm 3 m/s 649 mmHg 43%
    16:00 +24°C° 0 mm 3 m/s 649 mmHg 46%
    17:00 +21°C° 0 mm 3 m/s 649 mmHg 53%
    18:00 +19°C° 0 mm 2 m/s 648 mmHg 61%
    19:00 +18°C° 0 mm 2 m/s 648 mmHg 69%
    20:00 +17°C° 0 mm 2 m/s 648 mmHg 73%
    21:00 +16°C° 0 mm 2 m/s 648 mmHg 78%
    22:00 +15°C° 0 mm 2 m/s 648 mmHg 82%
    23:00 +15°C° 0 mm 2 m/s 648 mmHg 83%
    Arată mai mult